Regional Weather Roundup
Issued by NWS Spokane, WA

Home | Current Version | Previous Version | Text Only | Print | Product List | Glossary On
Versions: 1 2 3 4 5 6 7 8 9 10 11 12 13 14 15 16 17 18 19 20 21 22 23 24 25 26 27 28 29 30 31 32 33 34 35 36 37 38 39 40 41 42 43 44 45 46 47 48 49 50
000
NZUS01 KOTX 280200
RWROTX

Eastern Washington/Northern Idaho Roundup
National Weather Service, Spokane WA
700 PM PDT SUN MAY 27 2018

Note: "fair" indicated few or no clouds below 12,000 feet with no
significant weather and/or obstructions to visibility.

...Northeast Washington and Northern Idaho Panhandle...

CITY           SKY/WX    TMP DP  RH WIND       PRES   REMARKS
Spokane Intl   MOSUNNY   75  39  27 NW7       30.06S
Spokane Downto SUNNY     77  42  28 S3        30.04S
Coeur d Alene  SUNNY     75  43  31 W8        30.06S
Deer Park      SUNNY     75  45  34 S3        30.05S
Sandpoint      SUNNY     73  41  31 SW7       30.03S

...Southeast Washington and southern Idaho Panhandle...

CITY           SKY/WX    TMP DP  RH WIND       PRES   REMARKS
Walla Walla    SUNNY     77  48  35 S6        30.02S
Pullman/Moscow SUNNY     71  44  37 NW9       30.08S
Lowell           N/A     71  53  52 CALM      29.98R
Grangeville    FAIR      64  50  59 N6        30.08S

...Columbia Basin...

CITY           SKY/WX    TMP DP  RH WIND       PRES   REMARKS
Ephrata        SUNNY     81  43  26 S8        30.00S
Moses Lake     SUNNY     81  42  25 CALM      30.01F
Pasco          SUNNY     83  46  27 N5        29.99F
Hermiston      SUNNY     84  43  23 NE3       29.99F
Pendleton      SUNNY     78  41  26 NW8       30.03S

...East Slopes Cascades...

CITY           SKY/WX    TMP DP  RH WIND       PRES   REMARKS
The Dalles     SUNNY     79  52  38 N14       30.01S
Yakima         SUNNY     84  45  25 SE3       30.01S
Ellensburg     SUNNY     76  48  37 NW22G30   30.05R
Stampede Pass  SUNNY     61  46  57 VRB7      30.21S
Wenatchee      SUNNY     81  47  30 E3        29.99S
Omak           SUNNY     82  50  32 S9        29.98S
Sunnyside      CLEAR     80  44  27 CALM      30.00S

...Southern British Columbia...

CITY           SKY/WX    TMP DP  RH WIND       PRES   REMARKS

...Western Montana...

CITY           SKY/WX    TMP DP  RH WIND       PRES   REMARKS
Kalispell      CLEAR     73  48  41 S7        30.00F
Missoula       SUNNY     73  46  38 N12G21    30.00S

...Neighboring Cities...

CITY           SKY/WX    TMP DP  RH WIND       PRES   REMARKS
Seattle        SUNNY     74  46  36 SW7       30.15F
Portland       MOSUNNY   77  49  37 N10       30.12S
Boise          CLOUDY    78  48  34 NW16      29.89R
Great Falls    MOCLDY    74  50  42 SE12      30.04R



USA.gov is the U.S. government's official web portal to all federal, state and local government web resources and services.